Location: Kervinic
(48.4279°N, 4.7373°W)
Time: 23:24:06
(UTC+00:00)

Resurs 01 Rocket - Pass Details

Date: 09 April 2020
Orbit: 634 x 644 km, 98.0° (Epoch: 03 June)

Event Time Altitude Azimuth Distance (km) Brightness Sun altitude
Exits shadow 20:55:18 21° 177° (S) 1,421 3.1 -17.9°
Maximum altitude 20:58:11 70° 258° (WSW) 682 1.8 -18.3°
Drops below altitude 10° 21:02:37 10° 342° (NNW) 2,038 5.0 -18.9°
Sets 21:04:51 0° 345° (NNW) 2,953 5.9 -19.2°
